Weather History for Napoli / Capodichino, Italy

Change the Weather History Date:

Wednesday, April 16, 2014

  Actual Average Record
Temperature  
Mean Temperature 52 °F -  
Max Temperature 59 °F 69 °F - ()
Min Temperature 44 °F 51 °F - ()
Degree Days  
Heating Degree Days 14    
Growing Degree Days 2 (Base 50)    
Moisture  
Dew Point 34 °F    
Average Humidity 49    
Maximum Humidity 76    
Minimum Humidity 23    
Precipitation  
Precipitation 0.01 in 0.08 in - ()
Sea Level Pressure  
Sea Level Pressure 29.95 in    
Wind  
Wind Speed 9 mph ()    
Max Wind Speed 26 mph    
Max Gust Speed 38 mph    
Visibility 7.8 miles    
Events      
T = Trace of Precipitation, MM = Missing Value Source: Averaged Metar Reports

Daily Weather History Graph

Daily Weather History Graph

Search for Another Location

Airport:

Trip Planner

Search our weather history database for the weather conditions in past years. The results will help you decide how hot, cold, wet, or windy it might be!

Date:

Astronomy

Apr. 16, 2014 Rise Set
Actual Time 6:22 AM CEST 7:43 PM CEST
Civil Twilight 5:54 AM CEST 8:11 PM CEST
Nautical Twilight 5:20 AM CEST 8:46 PM CEST
Astronomical Twilight 4:44 AM CEST 9:22 PM CEST
Moon 9:09 PM CEST (4/16) 6:57 AM CEST (4/16)
Length of Visible Light 14h 17m
Length of Day
13h 20m
Full, 99% of the Moon is Illuminated
Apr 16
Full
Apr 22
Last Quarter
Apr 29
New
May 7
First Quarter
May 14
Full

Hourly Weather History & Observations

Time (CEST) Temp. Windchill Dew Point Humidity Pressure Visibility Wind Dir Wind Speed Gust Speed Precip Events Conditions
12:20 AM 48.2 °F - 39.2 °F 71% 29.86 in - NNE 11.5 mph - N/A   Clear
12:50 AM 50.0 °F - 39.2 °F 66% 29.89 in 6.2 mi NNE 9.2 mph - N/A   Partly Cloudy
1:20 AM 50.0 °F - 39.2 °F 66% 29.89 in 6.2 mi NNE 8.1 mph - N/A   Scattered Clouds
1:50 AM 48.2 °F - 39.2 °F 71% 29.89 in 6.2 mi NNE 8.1 mph - N/A   Scattered Clouds
2:00 AM 49 °F - 38 °F 57% 29.90 in 19 mi NNE 8.1 mph - -   Partly Cloudy
2:20 AM 48.2 °F - 37.4 °F 66% 29.86 in 6.2 mi NNE 10.4 mph - N/A   Partly Cloudy
2:50 AM 48.2 °F - 37.4 °F 66% 29.86 in 6.2 mi NNE 8.1 mph - N/A   Partly Cloudy
3:20 AM 46.4 °F 42.9 °F 37.4 °F 71% 29.89 in - North 6.9 mph - N/A   Clear
3:50 AM 46.4 °F 42.4 °F 39.2 °F 76% 29.89 in - North 8.1 mph - N/A   Clear
4:20 AM 46.4 °F 42.4 °F 35.6 °F 66% 29.89 in - NNE 8.1 mph - N/A   Clear
4:50 AM 48.2 °F - 35.6 °F 62% 29.89 in - North 5.8 mph - N/A   Clear
5:00 AM 48 °F - 35 °F 50% 29.90 in 19 mi North 6.9 mph - -  
5:20 AM 48.2 °F - 33.8 °F 58% 29.89 in - NNE 6.9 mph - N/A   Clear
5:50 AM 46.4 °F 42.9 °F 33.8 °F 62% 29.89 in - NNE 6.9 mph - N/A   Clear
6:20 AM 48.2 °F - 33.8 °F 58% 29.89 in - NNE 8.1 mph - N/A   Clear
6:50 AM 46.4 °F 43.5 °F 33.8 °F 62% 29.92 in - North 5.8 mph - N/A   Clear
7:20 AM 48.2 °F - 33.8 °F 58% 29.92 in 6.2 mi NE 6.9 mph - N/A   Partly Cloudy
7:50 AM 50.0 °F - 37.4 °F 62% 29.92 in 6.2 mi ENE 4.6 mph - N/A   Partly Cloudy
8:00 AM 50 °F - 37 °F 50% 29.95 in 19 mi ENE 5.8 mph - -   Scattered Clouds
8:20 AM 51.8 °F - 39.2 °F 62% 29.95 in 6.2 mi ENE 4.6 mph - N/A   Partly Cloudy
8:50 AM 53.6 °F - 35.6 °F 51% 29.95 in 6.2 mi NNE 9.2 mph - N/A   Partly Cloudy
9:20 AM 53.6 °F - 35.6 °F 51% 29.95 in 6.2 mi NNW 6.9 mph - N/A   Partly Cloudy
9:50 AM 55.4 °F - 35.6 °F 47% 29.95 in 6.2 mi NNE 6.9 mph - N/A   Scattered Clouds
10:20 AM 55.4 °F - 35.6 °F 47% 29.95 in 6.2 mi NNE 12.7 mph - N/A   Scattered Clouds
10:50 AM 55.4 °F - 35.6 °F 47% 29.95 in 6.2 mi NNE 11.5 mph - N/A   Partly Cloudy
11:00 AM 56 °F - 32 °F 28% 29.98 in 19 mi NNE 13.8 mph - -   Scattered Clouds
11:20 AM 57.2 °F - 33.8 °F 41% 29.98 in 6.2 mi NNE 13.8 mph - N/A   Partly Cloudy
11:50 AM 57.2 °F - 32.0 °F 38% 29.95 in 6.2 mi NNE 12.7 mph - N/A   Partly Cloudy
12:20 PM 59.0 °F - 30.2 °F 34% 29.95 in 6.2 mi NE 17.3 mph - N/A   Scattered Clouds
12:50 PM 57.2 °F - 33.8 °F 41% 29.98 in 6.2 mi NE 16.1 mph - N/A   Scattered Clouds
1:20 PM 53.6 °F - 35.6 °F 51% 29.98 in 6.2 mi NNE 26.5 mph 38.0 mph N/A   Scattered Clouds
1:50 PM 51.8 °F - 37.4 °F 58% 29.98 in 6.2 mi NNE 15.0 mph - N/A   Scattered Clouds
2:00 PM 53 °F - 38 °F 46% 30.00 in 19 mi North 10.4 mph - -   Partly Cloudy
2:20 PM 55.4 °F - 37.4 °F 51% 29.98 in 6.2 mi NE 11.5 mph - N/A   Scattered Clouds
2:50 PM 57.2 °F - 37.4 °F 48% 29.98 in 6.2 mi NE 10.4 mph - N/A   Partly Cloudy
3:20 PM 59.0 °F - 30.2 °F 34% 29.98 in 6.2 mi NNE 11.5 mph - N/A   Scattered Clouds
3:50 PM 57.2 °F - 33.8 °F 41% 29.98 in 6.2 mi North 11.5 mph - N/A   Scattered Clouds
4:20 PM 59.0 °F - 28.4 °F 31% 29.95 in 6.2 mi North 17.3 mph - N/A   Scattered Clouds
4:50 PM 59.0 °F - 30.2 °F 34% 29.95 in 6.2 mi NNW 16.1 mph - N/A   Scattered Clouds
5:00 PM 58 °F - 30 °F 23% 29.97 in 12 mi NNW 16.1 mph - -   Partly Cloudy
5:20 PM 59.0 °F - 26.6 °F 29% 29.95 in 6.2 mi North 18.4 mph - N/A   Scattered Clouds
5:50 PM 59.0 °F - 28.4 °F 31% 29.95 in 6.2 mi NNW 12.7 mph - N/A   Scattered Clouds
6:20 PM 59.0 °F - 28.4 °F 31% 29.98 in 6.2 mi NNW 12.7 mph - N/A   Scattered Clouds
6:50 PM 59.0 °F - 28.4 °F 31% 29.98 in 6.2 mi NNW 10.4 mph - N/A   Scattered Clouds
7:20 PM 57.2 °F - 28.4 °F 33% 29.98 in 6.2 mi North 10.4 mph - N/A   Mostly Cloudy
7:50 PM 57.2 °F - 30.2 °F 36% 29.98 in 6.2 mi North 8.1 mph - N/A   Mostly Cloudy
8:00 PM 56 °F - 30 °F 25% 30.00 in 12 mi North 9.2 mph - -   Mostly Cloudy
8:20 PM 53.6 °F - 32.0 °F 44% 29.98 in 6.2 mi NE 4.6 mph - N/A   Mostly Cloudy
8:50 PM 53.6 °F - 32.0 °F 44% 30.01 in 6.2 mi NNW 4.6 mph - N/A   Mostly Cloudy
9:20 PM 53.6 °F - 32.0 °F 44% 30.01 in 6.2 mi North 8.1 mph - N/A   Scattered Clouds
9:50 PM 51.8 °F - 33.8 °F 50% 30.01 in 6.2 mi North 9.2 mph - N/A   Partly Cloudy
10:20 PM 51.8 °F - 33.8 °F 50% 30.01 in 6.2 mi NNW 12.7 mph - N/A   Partly Cloudy
10:50 PM 51.8 °F - 33.8 °F 50% 30.01 in 6.2 mi North 8.1 mph - N/A   Partly Cloudy
11:00 PM 50 °F - 34 °F 42% 30.02 in 6 mi North 8.1 mph - -   Scattered Clouds
11:20 PM 50.0 °F - 33.8 °F 54% 30.01 in 6.2 mi NNW 9.2 mph - N/A   Partly Cloudy
11:50 PM 50.0 °F - 33.8 °F 54% 30.01 in 6.2 mi NNW 5.8 mph - N/A   Partly Cloudy